Weather History for Springfield, VT

Change the Weather History Date:

Tuesday, September 10, 2013

  Actual Average Record
Temperature  
Mean Temperature 60 °F 62 °F  
Max Temperature 71 °F 73 °F 93 °F (2002)
Min Temperature 48 °F 50 °F 42 °F (2005)
Degree Days  
Heating Degree Days 5 4  
Month to date heating degree days 59 33  
Since 1 July heating degree days 104 88  
Cooling Degree Days 0 1  
Month to date cooling degree days 21 16  
Year to date cooling degree days 474 337  
Growing Degree Days 10 (Base 50)    
Moisture  
Dew Point 60 °F    
Average Humidity 92    
Maximum Humidity 100    
Minimum Humidity 84    
Precipitation  
Precipitation 0.12 in 0.12 in 0.95 in (1999)
Month to date precipitation 1.27 1.01  
Year to date precipitation 28.75 29.38  
Sea Level Pressure  
Sea Level Pressure 30.07 in    
Wind  
Wind Speed 1 mph (WNW)    
Max Wind Speed 7 mph    
Max Gust Speed 9 mph    
Visibility 10 miles    
Events Rain    
T = Trace of Precipitation, MM = Missing Value Source: NWS Daily Summary

Daily Weather History Graph

Daily Weather History Graph

Search for Another Location

Airport:

Trip Planner

Search our weather history database for the weather conditions in past years. The results will help you decide how hot, cold, wet, or windy it might be!

Date:

Astronomy

Sep. 10, 2013 Rise Set
Actual Time 6:24 AM EDT 7:08 PM EDT
Civil Twilight 5:55 AM EDT 7:37 PM EDT
Nautical Twilight 5:21 AM EDT 8:11 PM EDT
Astronomical Twilight 4:45 AM EDT 8:47 PM EDT
Moon 11:57 AM EDT (9/10) 9:59 PM EDT (9/10)
Length of Visible Light 13h 42m
Length of Day
12h 44m
Waxing Crescent, 28% of the Moon is Illuminated
Sep 10
Waxing Crescent
Sep 12
First Quarter
Sep 19
Full
Sep 26
Last Quarter
Oct 4
New

Hourly Weather History & Observations

Time (EDT) Temp. Dew Point Humidity Pressure Visibility Wind Dir Wind Speed Gust Speed Precip Events Conditions
12:54 AM 48.9 °F 48.0 °F 97% 30.13 in 10.0 mi Calm Calm - N/A   Clear
1:54 AM 50.0 °F 48.0 °F 93% 30.14 in 10.0 mi Calm Calm - N/A   Clear
2:54 AM 50.0 °F 48.0 °F 93% 30.12 in 10.0 mi Calm Calm - N/A   Clear
3:54 AM 48.9 °F 46.9 °F 93% 30.13 in 10.0 mi Calm Calm - N/A   Partly Cloudy
4:54 AM 48.9 °F 48.0 °F 97% 30.12 in 10.0 mi Calm Calm - N/A   Mostly Cloudy
5:54 AM 51.1 °F 48.9 °F 92% 30.11 in 10.0 mi Calm Calm - N/A   Mostly Cloudy
6:54 AM 52.0 °F 50.0 °F 93% 30.11 in 10.0 mi Calm Calm - N/A   Overcast
7:54 AM 53.1 °F 51.1 °F 93% 30.10 in 10.0 mi Calm Calm - N/A   Overcast
8:54 AM 55.9 °F 53.1 °F 90% 30.10 in 10.0 mi Calm Calm - N/A   Overcast
9:54 AM 57.0 °F 55.0 °F 93% 30.09 in 10.0 mi Calm Calm - 0.00 in Rain Light Rain
10:54 AM 59.0 °F 57.0 °F 93% 30.06 in 5.0 mi NNW 3.5 mph - 0.10 in Rain Light Rain
11:02 AM 59.0 °F 57.2 °F 94% 30.06 in 9.0 mi North 3.5 mph - 0.00 in Rain Light Rain
11:54 AM 62.1 °F 60.1 °F 93% 30.07 in 10.0 mi Calm Calm - 0.01 in Rain Light Rain
12:06 PM 62.6 °F 60.8 °F 94% 30.05 in 10.0 mi Calm Calm - 0.00 in Rain Light Rain
12:13 PM 62.6 °F 60.8 °F 94% 30.06 in 6.0 mi Calm Calm - 0.01 in Rain Light Rain
12:54 PM 63.0 °F 61.0 °F 93% 30.06 in 10.0 mi Calm Calm - 0.01 in   Overcast
1:54 PM 64.9 °F 62.1 °F 90% 30.05 in 10.0 mi Calm Calm - N/A   Overcast
2:54 PM 69.1 °F 64.9 °F 87% 30.04 in 10.0 mi West 3.5 mph - N/A   Mostly Cloudy
3:54 PM 71.1 °F 66.0 °F 84% 30.04 in 10.0 mi SE 4.6 mph - N/A   Overcast
4:54 PM 71.1 °F 66.0 °F 84% 30.02 in 10.0 mi SSE 4.6 mph - N/A   Overcast
5:44 PM 71.6 °F 66.2 °F 83% 30.03 in 10.0 mi Calm Calm - N/A   Overcast
5:54 PM 71.1 °F 66.9 °F 87% 30.03 in 10.0 mi Calm Calm - N/A   Overcast
6:31 PM 69.8 °F 66.2 °F 88% 30.04 in 10.0 mi Calm Calm - N/A   Overcast
6:54 PM 69.1 °F 66.9 °F 93% 30.04 in 10.0 mi Calm Calm - N/A   Overcast
7:50 PM 68.0 °F 66.2 °F 94% 30.05 in 9.0 mi Calm Calm - N/A   Overcast
7:54 PM 69.1 °F 66.9 °F 93% 30.06 in 8.0 mi Calm Calm - N/A   Overcast
8:15 PM 68.0 °F 66.2 °F 94% 30.06 in 10.0 mi Calm Calm - N/A   Overcast
8:54 PM 68.0 °F 66.9 °F 96% 30.07 in 10.0 mi Calm Calm - N/A   Overcast
9:44 PM 66.2 °F 64.4 °F 94% 30.07 in 10.0 mi Calm Calm - N/A   Overcast
9:54 PM 66.9 °F 66.0 °F 97% 30.07 in 10.0 mi Calm Calm - N/A   Overcast
10:54 PM 66.0 °F 64.9 °F 96% 30.06 in 10.0 mi Calm Calm - N/A   Overcast
11:54 PM 66.9 °F 66.0 °F 97% 30.06 in 9.0 mi Calm Calm - N/A   Overcast